Location: Alphen
(52.1351°N, 4.6549°E)
Time: 01:56:55
(UTC+00:00)

NOSS 0 Rocket - Pass Details

Date: 27 January 2021
Orbit: 938 x 952 km, 70.0° (Epoch: 27 February)

Event Time Altitude Azimuth Distance (km) Brightness Sun altitude
Exits shadow 04:45:39 54° 236° (SW) 1,137 4.0 -24.9°
Maximum altitude 04:47:06 75° 304° (NW) 977 3.8 -24.7°
Drops below altitude 10° 04:53:18 10° 31° (NNE) 2,664 6.7 -23.7°
Sets 04:55:50 0° 33° (NNE) 3,610 7.4 -23.3°
